EW5961 Weather Reports


Display with metric or nautical units.
time (UTC)temp
F
wind
direction
speed
MPH
gust
MPH
rain 1hr
in
rain 24hr
in
rain mn
in
humidity
%
barometer
mb
20260509191525 100 131 7.0 14.0 0.00 0.00 0.00 43 1006.7
20260509190025 99 155 8.0 17.0 0.00 0.00 0.00 44 1007.1
20260509184518 99 82 11.0 16.0 0.00 0.00 0.00 44 1007.2
20260509183116 98 148 11.0 19.0 0.00 0.00 0.00 44 1007.4
20260509181512 97 111 10.0 16.0 0.00 0.00 0.00 45 1007.6
20260509180010 97 119 7.0 17.0 0.00 0.00 0.00 47 1007.9
20260509174505 96 119 8.0 17.0 0.00 0.00 0.00 48 1008.2
20260509173002 96 156 13.0 19.0 0.00 0.00 0.00 49 1008.4
20260509171559 95 157 8.0 17.0 0.00 0.00 0.00 51 1008.6
20260509170056 94 147 11.0 18.0 0.00 0.00 0.00 52 1008.9
20260509164552 93 136 12.0 18.0 0.00 0.00 0.00 53 1009.0
20260509163049 93 144 8.0 15.0 0.00 0.00 0.00 56 1009.2
20260509161544 92 171 8.0 18.0 0.00 0.00 0.00 58 1009.5
20260509160041 91 153 13.0 21.0 0.00 0.00 0.00 59 1009.6
20260509154543 90 27 12.0 22.0 0.00 0.00 0.00 61 1009.8
20260509153041 90 140 14.0 21.0 0.00 0.00 0.00 60 1009.7
20260509151530 89 148 14.0 22.0 0.00 0.00 0.00 62 1009.9
20260509150026 88 155 14.0 21.0 0.00 0.00 0.00 65 1009.9
20260509144526 87 138 13.0 22.0 0.00 0.00 0.00 69 1010.1
20260509143018 86 138 16.0 23.0 0.00 0.00 0.00 71 1010.2
20260509141515 85 152 16.0 25.0 0.00 0.00 0.00 72 1010.3
20260509140011 84 131 16.0 25.0 0.00 0.00 0.00 75 1009.9
20260509134506 83 142 16.0 27.0 0.00 0.00 0.00 77 1010.0
20260509133003 82 128 16.0 23.0 0.00 0.00 0.00 80 1010.2
20260509130056 79 107 12.0 21.0 0.00 0.00 0.00 85 1010.3
20260509124552 78 141 12.0 18.0 0.00 0.00 0.00 86 1010.2
20260509123049 78 136 11.0 17.0 0.00 0.00 0.00 87 1010.1
20260509121546 77 126 10.0 15.0 0.00 0.00 0.00 87 1010.0
20260509120057 77 142 9.0 14.0 0.00 0.00 0.00 87 1009.7
20260509114541 77 140 7.0 13.0 0.00 0.00 0.00 87 1009.7
20260509113039 77 136 8.0 12.0 0.00 0.00 0.00 87 1009.1
20260509111538 77 115 9.0 13.0 0.00 0.00 0.00 86 1008.9
20260509110043 77 137 7.0 12.0 0.00 0.00 0.00 86 1008.8
20260509104536 77 144 7.0 14.0 0.00 0.00 0.00 86 1008.8
20260509103037 77 151 7.0 12.0 0.00 0.00 0.00 85 1008.5
20260509101634 77 150 9.0 16.0 0.00 0.00 0.00 85 1008.4
20260509100035 77 126 8.0 13.0 0.00 0.00 0.00 84 1008.2
20260509094531 77 144 8.0 12.0 0.00 0.00 0.00 84 1008.0
20260509093029 77 123 7.0 11.0 0.00 0.00 0.00 83 1008.2
20260509091532 78 143 9.0 12.0 0.00 0.00 0.00 83 1008.3
20260509090025 78 138 7.0 12.0 0.00 0.00 0.00 82 1008.6
20260509084528 78 153 3.0 12.0 0.00 0.00 0.00 82 1008.7
20260509083020 78 141 5.0 10.0 0.00 0.00 0.00 81 1008.6
20260509081519 79 152 7.0 13.0 0.00 0.00 0.00 81 1008.6
20260509080017 79 132 9.0 14.0 0.00 0.00 0.00 80 1008.6
20260509074515 79 130 7.0 14.0 0.00 0.00 0.00 80 1008.7
20260509073021 80 127 10.0 15.0 0.00 0.00 0.00 79 1008.8
20260509071509 80 118 10.0 18.0 0.00 0.00 0.00 78 1008.6
20260509070006 80 119 9.0 18.0 0.00 0.00 0.00 77 1008.8
20260509064604 81 147 10.0 15.0 0.00 0.00 0.00 76 1008.9
20260509063001 81 121 13.0 21.0 0.00 0.00 0.00 75 1009.3
20260509061602 81 126 10.0 18.0 0.00 0.00 0.00 74 1009.5
20260509060157 82 138 11.0 18.0 0.00 0.00 0.00 73 1009.7
20260509054612 82 117 11.0 17.0 0.00 0.00 0.00 72 1010.1
20260509053100 82 134 12.0 20.0 0.00 0.00 0.00 72 1009.9
20260509051556 83 117 8.0 17.0 0.00 0.00 0.00 71 1009.9
20260509050057 83 135 9.0 20.0 0.00 0.00 0.00 70 1009.8
20260509044554 83 139 11.0 19.0 0.00 0.00 0.00 70 1009.9
20260509043054 84 138 13.0 21.0 0.00 0.00 0.00 68 1010.0
20260509041555 84 123 14.0 21.0 0.00 0.00 0.00 66 1009.8
20260509040121 85 29 7.0 18.0 0.00 0.00 0.00 66 1009.7
20260509034557 85 127 19.0 24.0 0.00 0.00 0.00 65 1009.4
20260509033052 86 119 11.0 21.0 0.00 0.00 0.00 63 1009.3
20260509031550 87 134 15.0 28.0 0.00 0.00 0.00 63 1009.0
20260509030050 87 149 14.0 22.0 0.00 0.00 0.00 61 1008.5
20260509024549 88 140 15.0 27.0 0.00 0.00 0.00 59 1008.3
20260509023048 89 119 12.0 18.0 0.00 0.00 0.00 56 1008.1
20260509021548 90 135 13.0 28.0 0.00 0.00 0.00 54 1008.0
20260509020046 91 111 9.0 18.0 0.00 0.00 0.00 52 1007.6
20260509014546 91 101 11.0 23.0 0.00 0.00 0.00 51 1007.2
20260509013050 92 128 11.0 17.0 0.00 0.00 0.00 49 1007.2
20260509011556 93 117 10.0 15.0 0.00 0.00 0.00 47 1007.0
20260509010048 94 140 11.0 18.0 0.00 0.00 0.00 46 1006.8
20260509004600 95 126 11.0 16.0 0.00 0.00 0.00 46 1006.6
20260509003044 95 128 12.0 19.0 0.00 0.00 0.00 45 1006.3
20260509001543 96 96 11.0 17.0 0.00 0.00 0.00 45 1006.3
20260509000045 96 140 7.0 14.0 0.00 0.00 0.00 45 1006.2
20260508234541 97 137 10.0 17.0 0.00 0.00 0.00 44 1005.9
20260508233042 97 144 7.0 16.0 0.00 0.00 0.00 44 1005.8
20260508231541 98 150 11.0 19.0 0.00 0.00 0.00 43 1005.7
20260508230040 99 154 7.0 16.0 0.00 0.00 0.00 42 1005.7
20260508224638 98 153 9.0 17.0 0.00 0.00 0.00 42 1005.7
20260508223045 98 128 9.0 18.0 0.00 0.00 0.00 42 1005.7
20260508221540 98 126 8.0 19.0 0.00 0.00 0.00 43 1005.7
20260508220036 99 187 6.0 18.0 0.00 0.00 0.00 42 1005.7
20260508214538 99 100 10.0 22.0 0.00 0.00 0.00 42 1006.0
20260508213035 99 137 9.0 19.0 0.00 0.00 0.00 42 1006.0
20260508211534 100 103 8.0 17.0 0.00 0.00 0.00 41 1006.2
20260508210030 99 150 11.0 17.0 0.00 0.00 0.00 41 1006.4
20260508204532 99 115 6.0 22.0 0.00 0.00 0.00 43 1006.5
20260508203027 99 142 5.0 18.0 0.00 0.00 0.00 43 1006.7
20260508201526 99 125 11.0 20.0 0.00 0.00 0.00 44 1007.1
20260508200024 100 121 6.0 16.0 0.00 0.00 0.00 43 1007.1
20260508194519 99 123 7.0 17.0 0.00 0.00 0.00 44 1007.4
20260508193015 98 158 6.0 19.0 0.00 0.00 0.00 46 1008.0